Location: Unnamed
(30.7493°N, 81.5925°W)
Time: 20:42:56
(UTC-05:00)

Tiangong - Visible Passes

Search period start: 23 February 2024 00:00
Search period end: 04 March 2024 00:00
Orbit: 375 x 387 km, 41.5° (Epoch: 23 February)

Date Brightness Start Highest point End Pass type
(mag) Time Alt. Az. Time Alt. Az. Time Alt. Az.
24 Feb 0.5 20:11:14 10° SW 20:12:02 16° SW 20:12:02 16° SW visible
25 Feb -0.8 19:10:54 10° SSW 19:13:28 24° SE 19:14:37 20° ESE visible
26 Feb -2.1 19:46:02 10° WSW 19:49:07 71° NNW 19:49:12 70° NNW visible
27 Feb -1.9 18:45:07 10° SW 18:48:07 51° SSE 18:51:09 10° ENE visible
27 Feb 0.7 20:22:26 10° WNW 20:23:38 17° WNW 20:23:38 17° WNW visible
28 Feb -1.0 19:20:51 10° W 19:23:46 37° NNW 19:25:45 17° NE visible
29 Feb 0.2 19:57:32 10° WNW 19:59:39 17° NNW 19:59:53 17° N visible
01 Mar -0.3 18:55:39 10° WNW 18:58:15 24° NNW 19:00:51 10° NE visible
02 Mar 0.4 19:32:28 10° NW 19:34:07 13° N 19:35:37 10° NNE visible
03 Mar 0.8 20:08:56 10° NNW 20:09:23 11° NNW 20:09:23 11° NNW visible
